Content
SEND FEEDBACK

Daily
Averages
Monthly
Summary
United States of America

SLEETMUTE, ALASKA


Home > North America > United States > Alaska
Elevation: 290 feet     Latitude: 61 42N     Longitude: 157 11W

WEATHER
 
SELECT A DAY
Number of Records: 343,024;   Date Range: 1/1/95 - 7/20/14
 
SHARE

PRINT THIS DATA

[ ← Previous Day ]
WEATHER ALMANAC - JANUARY 31, 2013
[ Next Day → ]
[ °C ]   °F
Weather ElementAverageHighLow
Temperature10 °F17.6 °F (3:16 pm)-2.2 °F (10:36 pm)
Dewpoint6.1 °F10.4 °F (9:36 am)-9.4 °F (10:36 pm)
Humidity84.3 %100 % (11:36 pm)71 % (10:36 pm)
Barometer29.94 in30.06 in (10:16 pm)29.76 in (12:56 am)
Wind Speed0.5 mph5.8 mph (11:36 pm)
Weather ElementAverage
Visibility8.4 mi
Wind DirectionNNE (16.7 °)

Weather ElementTotal
Precipitation---
Heating Degree Days57.3 (Base 65)
Averaged from 46 records on January 31, 2013
WEATHER CONDITIONS BREAKOUT
WIND DIRECTION BREAKOUT
WEATHER BY HOUR - JANUARY 31, 2013
[ °C ]   °F
Local TimeTemperatureDewpointHumidityBarometerVisibilityWind DirectionWind SpeedGust SpeedPrecipitationEventsConditions
12:56 AM10.4 °F6.8 °F85 %29.76 in10.0 miCalmOvercast
1:16 AM10.4 °F6.8 °F85 %29.77 in10.0 miCalmOvercast
1:36 AM10.4 °F6.8 °F85 %29.78 in7.0 miCalmOvercast
2:36 AM10.4 °F8.6 °F92 %29.81 in2.0 miCalmOvercast
2:56 AM10.4 °F8.6 °F92 %29.81 in4.0 miCalmOvercast
3:16 AM10.4 °F6.8 °F85 %29.82 in2.0 miCalmOvercast
3:36 AM10.4 °F8.6 °F92 %29.83 in2.0 miCalmOvercast
3:56 AM10.4 °F8.6 °F92 %29.84 in3.0 miCalmOvercast
4:16 AM10.4 °F8.6 °F92 %29.85 in7.0 miCalmOvercast
4:56 AM12.2 °F8.6 °F85 %29.86 in9.0 miCalmOvercast
5:16 AM12.2 °F8.6 °F85 %29.86 in10.0 miCalmOvercast
5:36 AM12.2 °F8.6 °F85 %29.86 in2.5 miCalmOvercast
5:56 AM12.2 °F8.6 °F85 %29.87 in3.0 miCalmOvercast
6:16 AM12.2 °F8.6 °F85 %29.87 in8.0 miCalmOvercast
6:56 AM12.2 °F8.6 °F85 %29.88 in8.0 miCalmOvercast
7:16 AM12.2 °F8.6 °F85 %29.89 in10.0 miCalmOvercast
7:36 AM12.2 °F8.6 °F85 %29.89 in10.0 miCalmOvercast
7:56 AM12.2 °F8.6 °F85 %29.90 in10.0 miCalmOvercast
8:36 AM12.2 °F8.6 °F85 %29.92 in10.0 miCalmOvercast
8:56 AM12.2 °F8.6 °F85 %29.93 in10.0 miCalmOvercast
9:16 AM12.2 °F8.6 °F85 %29.94 in10.0 miCalmOvercast
9:36 AM12.2 °F10.4 °F92 %29.94 in10.0 miCalmOvercast
9:56 AM12.2 °F8.6 °F85 %29.96 in10.0 miCalmOvercast
11:16 AM12.2 °F6.8 °F79 %29.98 in6.0 miCalmOvercast
11:36 AM12.2 °F6.8 °F79 %29.99 in10.0 miCalmOvercast
12:56 PM14.0 °F8.6 °F79 %30.01 in10.0 miCalmOvercast
1:16 PM15.8 °F8.6 °F73 %30.01 in10.0 miCalmOvercast
1:56 PM15.8 °F8.6 °F73 %30.01 in10.0 miCalmOvercast
2:16 PM15.8 °F10.4 °F79 %30.02 in10.0 miCalmOvercast
2:36 PM15.8 °F10.4 °F79 %30.02 in10.0 miCalmMostly Cloudy
3:16 PM17.6 °F10.4 °F73 %30.03 in10.0 miCalmMostly Cloudy
4:16 PM15.8 °F8.6 °F73 %30.03 in10.0 miCalmOvercast
4:56 PM12.2 °F8.6 °F85 %30.03 in4.0 miCalmScattered Clouds
5:36 PM8.6 °F3.2 °F79 %30.03 in9.0 miCalmClear
6:16 PM3.2 °F-2.2 °F78 %30.02 in10.0 miCalmClear
6:36 PM1.4 °F-2.2 °F85 %30.03 in10.0 miCalmClear
7:16 PM-0.4 °F-5.8 °F78 %30.03 in8.0 miCalmClear
7:56 PM-0.4 °F-2.2 °F92 %30.04 in10.0 miCalmClear
8:36 PM5.0 °F-0.4 °F78 %30.04 in10.0 miNNE (20°)3.5 mphClear
8:56 PM6.8 °F5.0 °F92 %30.03 in10.0 miNorth (10°)4.6 mphClear
9:16 PM6.8 °F3.2 °F85 %30.03 in10.0 miNorth (10°)3.5 mphClear
9:36 PM6.8 °F3.2 °F85 %30.03 in10.0 miNorth (10°)3.5 mphClear
10:16 PM3.2 °F1.4 °F92 %30.06 in10.0 miCalmClear
10:36 PM-2.2 °F-9.4 °F71 %30.06 in10.0 miCalmClear
11:36 PM3.2 °F3.2 °F100 %30.05 in10.0 miNorth (360°)5.8 mphClear
11:56 PM5.0 °F3.2 °F92 %30.04 in10.0 miNorth (360°)3.5 mphClear
Hourly data recorded from PASL, located miles away from Sleetmute, Alaska







STORIES FROM OUR PARTNERS